User: anonymous   Login
Location: Prague
(50.0830°N, 14.4670°E)
Time: 04:35:55
(UTC+02:00)
Language:

Oscar 11 - Orbit

View from above orbital plane
View from above orbital plane
View from above satellite
View from above satellite

Ground track
Ground track

The orbit data is extracted from the following two-line orbital elements,

1 14781U 84021B   22274.53195531  .00001336  00000-0  16713-3 0  9999
2 14781  97.6284 257.1942 0007837 344.1236  15.9732 14.83831919 55775
Epoch (UTC): 01 October 2022 12:46:00
Eccentricity: 0.0007837
inclination: 97.6284°
perigee height: 612 km
apogee height: 623 km
right ascension of ascending node: 257.1942°
argument of perigee: 344.1236°
revolutions per day: 14.83831919
mean anomaly at epoch: 15.9732°
orbit number at epoch: 5577

The dashed part of the orbit path shows where the satellite is in the earth's shadow,  

DLR